GW4246 Weather Reports


Display with metric or nautical units.
time (UTC)temp
F
wind
direction
speed
MPH
gust
MPH
rain 1hr
in
rain 24hr
in
rain mn
in
humidity
%
barometer
mb
20260503172020 55 198 3.0 6.0 0.00 0.00 0.00 82 1012.2
20260503171016 55 191 4.0 7.0 0.00 0.00 0.00 82 1012.2
20260503131016 52 86 1.0 3.0 0.00 0.00 0.00 92 1010.0
20260503081022 52 196 2.0 4.0 0.00 0.00 0.00 90 1010.8
20260503072021 52 159 1.0 2.0 0.00 0.00 0.00 90 1010.9
20260503071016 52 203 0.0 2.0 0.00 0.00 0.00 90 1010.9
20260503055017 52 194 3.0 4.0 0.00 0.00 0.00 89 1011.4
20260503054040 52 194 3.0 4.0 0.00 0.00 0.00 89 1011.4
20260503053103 52 179 3.0 4.0 0.00 0.00 0.00 89 1011.4
20260503052038 52 193 1.0 5.0 0.00 0.00 0.00 89 1011.4
20260503051041 52 202 2.0 4.0 0.00 0.00 0.00 89 1011.6
20260503050036 52 203 3.0 5.0 0.00 0.00 0.00 88 1011.5
20260503045019 52 177 2.0 4.0 0.00 0.00 0.00 88 1011.5
20260503044023 53 193 2.0 4.0 0.00 0.00 0.00 88 1011.3
20260503043018 52 193 3.0 4.0 0.00 0.00 0.00 88 1011.3
20260503042020 53 198 2.0 4.0 0.00 0.00 0.00 88 1011.3
20260503041022 53 189 3.0 5.0 0.00 0.00 0.00 87 1011.2
20260503040017 53 193 3.0 4.0 0.00 0.00 0.00 87 1011.1
20260503035018 53 191 1.0 3.0 0.00 0.00 0.00 86 1011.0
20260503034020 53 175 1.0 3.0 0.00 0.00 0.00 86 1010.9
20260503033022 53 194 1.0 4.0 0.00 0.00 0.00 85 1010.7
20260503032016 53 165 0.0 3.0 0.00 0.00 0.00 85 1010.6
20260503031019 53 170 1.0 4.0 0.00 0.00 0.00 85 1010.6
20260503030021 53 187 2.0 6.0 0.00 0.00 0.00 85 1010.7
20260503025023 54 187 0.0 4.0 0.00 0.00 0.00 85 1010.7
20260503024018 54 156 1.0 4.0 0.00 0.00 0.00 85 1010.7
20260503023020 54 127 1.0 4.0 0.00 0.00 0.00 84 1010.7
20260503022023 54 172 2.0 5.0 0.00 0.00 0.00 84 1010.8
20260503021017 54 145 1.0 4.0 0.00 0.00 0.00 83 1010.8
20260503020039 54 28 1.0 3.0 0.00 0.00 0.00 82 1010.8
20260503015022 54 110 1.0 4.0 0.00 0.00 0.00 82 1011.0
20260503014016 54 199 4.0 8.0 0.00 0.00 0.00 82 1010.9
20260503013018 55 150 1.0 4.0 0.00 0.00 0.00 82 1011.0
20260503012040 55 195 2.0 8.0 0.00 0.00 0.00 81 1011.1
20260503011042 55 160 2.0 4.0 0.00 0.00 0.00 82 1011.1
20260503010016 55 193 3.0 6.0 0.00 0.00 0.00 81 1011.1
20260503005018 55 207 4.0 9.0 0.00 0.00 0.00 81 1011.2
20260503004019 55 176 2.0 7.0 0.00 0.00 0.00 81 1011.1
20260503003022 56 190 3.0 8.0 0.00 0.00 0.00 80 1011.2
20260503002016 56 189 3.0 9.0 0.00 0.00 0.00 79 1011.1
20260503001018 57 117 1.0 4.0 0.00 0.00 0.00 78 1011.3
20260503000042 57 56 1.0 4.0 0.00 0.00 0.00 79 1011.3
20260502235022 57 171 2.0 7.0 0.00 0.00 0.00 78 1011.4
20260502234016 58 182 1.0 6.0 0.00 0.00 0.00 77 1011.3
20260502233017 58 183 2.0 8.0 0.00 0.00 0.00 77 1011.4
20260502232019 58 186 3.0 8.0 0.00 0.00 0.00 76 1011.4
20260502231021 58 196 6.0 11.0 0.00 0.00 0.00 77 1011.5
20260502230016 58 196 6.0 12.0 0.00 0.00 0.00 76 1011.6
20260502225018 57 205 5.0 10.0 0.00 0.00 0.00 77 1011.7
20260502224020 58 193 4.0 10.0 0.00 0.00 0.00 77 1011.8
20260502223021 57 204 5.0 14.0 0.00 0.00 0.00 78 1011.9
20260502222041 57 202 6.0 11.0 0.00 0.00 0.00 79 1012.0
20260502221022 57 204 6.0 13.0 0.00 0.00 0.00 79 1012.1
20260502220015 57 201 6.0 13.0 0.00 0.00 0.00 79 1012.1
20260502215036 57 202 6.0 12.0 0.00 0.00 0.00 79 1012.3
20260502214059 57 188 3.0 8.0 0.00 0.00 0.00 81 1012.2
20260502213022 56 197 3.0 12.0 0.00 0.00 0.00 83 1012.2
20260502212017 57 197 2.0 9.0 0.00 0.00 0.00 82 1012.3
20260502211020 57 191 5.0 10.0 0.00 0.00 0.00 81 1012.5
20260502210023 57 184 4.0 7.0 0.00 0.00 0.00 83 1012.5
20260502205018 57 192 6.0 9.0 0.00 0.00 0.00 83 1012.5
20260502204022 56 189 3.0 8.0 0.00 0.00 0.00 83 1012.6
20260502203016 56 187 3.0 6.0 0.00 0.00 0.00 84 1012.7
20260502202019 55 203 5.0 9.0 0.00 0.00 0.00 85 1012.8
20260502201022 56 192 3.0 7.0 0.00 0.00 0.00 84 1012.8
20260502200017 56 183 3.0 6.0 0.00 0.00 0.00 85 1012.9
20260502195021 56 195 4.0 7.0 0.00 0.00 0.00 84 1012.8
20260502194035 56 195 4.0 7.0 0.00 0.00 0.00 84 1012.8
20260502193018 56 189 5.0 8.0 0.00 0.00 0.00 84 1012.8
20260502192021 56 205 4.0 6.0 0.00 0.00 0.00 84 1013.1
20260502191017 57 193 4.0 7.0 0.00 0.00 0.00 84 1012.9
20260502190020 57 197 3.0 6.0 0.00 0.00 0.00 82 1012.9
20260502185023 57 194 4.0 9.0 0.00 0.00 0.00 81 1012.9
20260502184017 56 196 4.0 6.0 0.00 0.00 0.00 82 1012.9
20260502182016 55 156 3.0 5.0 0.00 0.00 0.00 84 1012.8
20260502181039 56 203 0.0 2.0 0.00 0.00 0.00 82 1012.8